Find OPS 9317

NORAD ID: 2221 Int'l Des: 1966-053 Owner: AFSSD Country: US operational
MEOCIRCULAR

Live-Position

3D-Globus wird geladen...

Über OPS 9317

Beschreibung wird geladen...

Nächste Überflüge

Passes for default location (London). Set your location on the main map for personalized predictions.

Höhenverlauf

Loading altitude history...

Zweizeiliger Elementsatz

1 2221U 66053H 26104.99346610 -.00000077 00000-0 00000+0 0 9992
2 2221 8.3149 47.5783 0080527 174.2755 185.8068 1.06869338 50354
Epoch: 14. Apr. 2026 • Age: 37 hours

Aktueller Status

Höhe 33846.2 km
Geschwindigkeit 3.16 km/s
Subsatellitenpunkt -6.32°S, 116.34°W
Typ other

Most Searched